map of SBMT home
Great Circle Mapper logo
SBMT - Airport
Location
City:  São Paulo, São Paulo, Brazil
Name:Campo de Marte
ICAO:SBMT

Details
Type:Airport (Aerodrome, Airfield)
Use:Public/Civil, Military
Latitude:23°30'33"S (-23.509118)
Longitude:46°38'16"W (-46.637752)
Datum:WGS 1984
Elevation:2368 ft (722 m)
Variation:21.01°W (WMM2015 magnetic declination)
-0.12° annual change
Runways:1
Longest:5250 × 148 ft (1600 × 45 m), paved

Time
Time Zone:UTC-3 (DST-2)
Local Time:

Weather
METAR:SBMT 181400Z 34011KT 9999 FEW025 26/17 Q1018

Related Locations
Nearby:
Farthest:MMD: 12228 mi / 19679 km
Minami Daito Jima, Okinawa, JP

Find:

   beyond  
but within

Other Information
Maps:
NOTAMs:
Links:
Sources:

  
flag of Brazil
flag of São Paulo
flag of São Paulo
  

Sectional Chart

Flight Planning
at skyvector.com

Satellite Image

Google Maps Satellite View

 

Copyright © 2004-2015 Karl L. Swartz. All rights reserved.
The Great Circle Mapper name and logo are trademarks of the Great Circle Mapper.
All other trademarks mentioned herein belong to their respective owners.
Please see credits for attibutions and further copyright information.

  Follow gcmap on Facebook Follow gcmap on Twitter Follow gcmap on Google+

hCard Microformat

Geo Microformat